[Iaude] MPEC G70: 2017 GL6 [a=1.59,e=0.42,i=6.5,H=23.0]

mpec at si.edu mpec at si.edu
Mon Apr 10 17:56:17 EDT 2017


M.P.E.C. 2017-G70                                Issued 2017 Apr. 10, 21:50 UT
 
     The Minor Planet Electronic Circulars contain information on unusual
         minor planets and routine data on comets.  They are published
    on behalf of Division F of the International Astronomical Union by the
          Minor Planet Center, Smithsonian Astrophysical Observatory,
                          Cambridge, MA 02138, U.S.A.

             Prepared using the Tamkin Foundation Computer Network

                              MPC at CFA.HARVARD.EDU
            URL http://www.minorplanetcenter.net/    ISSN 1523-6714


                                   2017 GL6
 
Observations:
     K17G06L* C2017 04 05.33180 11 28 06.330-27 24 48.14         20.1 iLEG070F51
     K17G06L  C2017 04 05.34147 11 28 08.722-27 24 09.63         20.1 iLEG070F51
     K17G06L  C2017 04 05.35114 11 28 11.056-27 23 32.01         19.9 iLEG070F51
     K17G06L  C2017 04 05.36079 11 28 13.415-27 22 53.69         20.2 iLEG070F51
     K17G06L  C2017 04 05.37943 11 28 17.973-27 21 39.60         20.5 iLEG070F51
     K17G06L  C2017 04 05.38911 11 28 20.328-27 21 01.13         20.0 iLEG070F51
     K17G06L  C2017 04 05.39878 11 28 22.683-27 20 22.42         19.9 iLEG070F51
     K17G06L |C2017 04 06.01633 11 31 08.39 -26 39 12.4          20.4 VuEG070807
     K17G06L |C2017 04 06.01923 11 31 09.09 -26 39 01.5          20.5 VuEG070807
     K17G06L |C2017 04 06.02200 11 31 09.74 -26 38 51.0          20.1 VuEG070807
     K17G06L KC2017 04 06.18733 11 31 51.28 -26 29 07.5                oEG070691
     K17G06L KC2017 04 06.21208 11 31 57.10 -26 27 33.1                oEG070691
     K17G06L KC2017 04 06.23681 11 32 02.80 -26 25 59.1                oEG070691
     K17G06L |C2017 04 07.24084 11 36 07.77 -25 22 19.9          20.8 VuEG070807
     K17G06L |C2017 04 07.24362 11 36 08.39 -25 22 09.5          20.7 VuEG070807
     K17G06L |C2017 04 07.24652 11 36 09.03 -25 21 58.7          20.7 VuEG070807
     K17G06L |C2017 04 08.18552 11 39 47.99 -24 25 48.5          20.9 VuEG070807
     K17G06L |C2017 04 08.19119 11 39 49.15 -24 25 28.4          20.9 VuEG070807
     K17G06L |C2017 04 08.19709 11 39 50.37 -24 25 07.3          21.0 VuEG070807
     K17G06L |C2017 04 09.02836 11 42 56.25 -23 37 15.3          20.6 VuEG070807
     K17G06L |C2017 04 09.03302 11 42 57.14 -23 36 59.3          20.5 VuEG070807
     K17G06L |C2017 04 09.03780 11 42 58.11 -23 36 44.3          20.4 VuEG070807
 
Observer details:
691 Steward Observatory, Kitt Peak.  Observer R. S. McMillan.  0.9-m f/3
    reflector + CCD.
807 Cerro Tololo.  Observers T. Linder, R. Holmes.  0.61-m f/6.5 astrograph
    + CCD.
F51 Pan-STARRS 1, Haleakala.  Observers B. Gibson, T. Goggia, S. Kahale,
    T. Lowe, A. Schultz, M. Willman.  Measurers K. Chambers, S. Chastel,
    L. Denneau, H. Flewelling, M. Huber, E. Lilly, E. Magnier, R. Wainscoat,
    C. Waters, R. Weryk.  1.8-m Ritchey-Chretien + CCD.
 
Orbital elements:
2017 GL6                                                 Earth MOID = 0.0679 AU
Epoch 2017 Feb. 16.0 TT = JDT 2457800.5                 MPC
M   5.64355              (2000.0)            P               Q
n   0.48968572     Peri.  257.33842     -0.58270087     -0.80822792
a   1.5941325      Node   228.63528     +0.78266042     -0.52992078
e   0.4180883      Incl.    6.50404     +0.21886608     -0.25681045
P   2.01           H   23.0           G   0.15           U   7
Residuals in seconds of arc
170405 F51  0.1+  0.1+    170406 807  0.1+  0.3-    170408 807  0.1-  0.1-
170405 F51  0.3+  0.4+    170406 807  0.1-  0.3-    170408 807  0.1-  0.1-
170405 F51  0.1-  0.2-    170406 691 (1.7+  0.1+)   170408 807  0.1-  0.0
170405 F51  0.1-  0.1-    170406 691 (2.1+  0.5+)   170409 807  0.2+  0.1+
170405 F51  0.1-  0.0     170406 691  1.3+  0.2+    170409 807  0.3-  0.6+
170405 F51  0.2-  0.1-    170407 807  0.2-  0.1-    170409 807  0.0   0.2-
170405 F51  0.2-  0.0     170407 807  0.2-  0.1-
170406 807  0.1+  0.3-    170407 807  0.2-  0.2-

Ephemeris:
2017 GL6                 a,e,i = 1.59, 0.42, 7                   q = 0.9276
Date    TT    R. A. (2000) Decl.     Delta      r     Elong.  Phase     V
2017 03 11    06 16 28.0 -52 23 01   0.1017  1.0070    94.8    79.4    20.8
...
2017 03 26    10 18 31.7 -40 59 49   0.1166  1.0797   132.5    42.9    20.2
...
2017 04 03    11 16 43.3 -30 06 20   0.1449  1.1241   147.0    29.0    20.3
...
2017 04 09    11 42 48.0 -23 39 04   0.1733  1.1591   153.5    22.7    20.6
2017 04 10    11 46 16.6 -22 43 49   0.1785  1.1651   154.2    22.0    20.7
2017 04 11    11 49 33.8 -21 51 03   0.1839  1.1711   154.8    21.4    20.7
...
2017 04 17    12 06 06.7 -17 22 02   0.2191  1.2074   156.2    19.6    21.1
...
2017 04 25    12 22 40.3 -13 07 18   0.2730  1.2569   153.9    20.6    21.7
...
2017 05 10    12 46 21.8 -08 46 09   0.3945  1.3508   144.6    25.6    22.8

A. U. Tomatic                (C) Copyright 2017 MPC           M.P.E.C. 2017-G70




More information about the Iaude mailing list